This demonstration page uses our WeatherBlox Daily Observations layout. Learn more.

Left ArrowRight Arrow

40.92501, -98.34201

Hourly Observations for May 17, 2020

Temp ( °F °C ) Dew Point ( °F °C ) Humidity (%) Winds ( mph kmh ) Pressure ( in mb ) Visibility ( mi km ) Precip ( " mm )
12:39 am 00:39 Cloudy with Mist and Fog 53 11.7 49 9.4 86 86 NNW 10 17 29.99 1015 6 10 0.00 0.00
12:53 am 00:53 Cloudy with Mist and Fog 53 11.7 49 9.4 86 86 NNW 9 15 30.00 1016 6 10 0.00 0.00
1:53 am 01:53 Cloudy with Mist and Fog 53 11.7 49 9.4 86 86 NNW 9 15 30.00 1016 6 10 0.00 0.00
2:51 am 02:51 Cloudy with Mist and Fog 54 12 48 9 82 82 NW 7 11 29.98 1015 6 10 0.00 0.00
2:53 am 02:53 Cloudy with Mist and Fog 53 11.7 49 9.4 86 86 NW 7 11 29.99 1016 6 10 0.00 0.00
3:05 am 03:05 Cloudy with Haze 54 12.2 49 9.4 83 83 NNW 7 11 29.98 1015 6 10 0.00 0.00
3:53 am 03:53 Cloudy with Mist and Fog 54 12.2 50 10 87 87 NNW 9 15 29.98 1015 6 10 0.00 0.00
4:10 am 04:10 Cloudy 53 11.7 49 9.4 86 86 NNW 10 17 29.99 1015 7 11 0.00 0.00
4:38 am 04:38 Cloudy with Mist and Fog 54 12.2 50 10 87 87 NNW 15 24 29.98 1015 6 10 0.00 0.00
4:46 am 04:46 Cloudy 54 12.2 48 8.9 80 80 N 16 26 29.98 1015 8 13 0.00 0.00
4:53 am 04:53 Cloudy 53 11.7 48 8.9 83 83 NNW 13 20 29.99 1016 9 14 0.00 0.00
5:43 am 05:43 Cloudy 53 11.7 48 8.9 83 83 NW 14 22 30.00 1016 10 16 0.00 0.00
5:53 am 05:53 Cloudy 53 11.7 48 8.9 83 83 NNW 14 22 30.00 1016 9 14 0.00 0.00
6:04 am 06:04 Cloudy 53 11.7 48 8.9 83 83 NNW 14 22 30.00 1016 9 14 0.00 0.00
6:18 am 06:18 Cloudy 53 11.7 48 8.9 83 83 NW 12 19 30.00 1016 8 13 0.00 0.00
6:53 am 06:53 Cloudy with Mist and Fog 53 11.7 49 9.4 86 86 NW 10 17 30.00 1016 5 8 0.00 0.00
7:53 am 07:53 Cloudy 54 12.2 48 8.9 80 80 NW 16 26 30.03 1017 10 16 0.00 0.00
8:24 am 08:24 Mostly Cloudy 57 13.9 48 8.9 72 72 NNW 17 28 30.00 1016 10 16 0.00 0.00
8:53 am 08:53 Mostly Cloudy 56 13.3 48 8.9 75 75 NNW 14 22 30.03 1017 10 16 0.00 0.00
9:50 am 09:50 Cloudy 55 13 46 8 72 72 NNW 18 30 30.02 1017 10 16 0.00 0.00
9:53 am 09:53 Cloudy 56 13.3 47 8.3 72 72 NNW 16 26 30.04 1017 10 16 0.00 0.00
10:53 am 10:53 Cloudy 58 14.4 47 8.3 67 67 NW 22 35 30.04 1017 10 16 0.00 0.00
11:53 am 11:53 Cloudy 59 15 46 7.8 62 62 NW 17 28 30.04 1017 10 16 0.00 0.00
12:53 pm 12:53 Cloudy 60 15.6 47 8.3 62 62 NW 22 35 30.03 1017 10 16 0.00 0.00
1:53 pm 13:53 Cloudy 62 16.7 46 7.8 56 56 NNW 18 30 30.02 1017 10 16 0.00 0.00
2:53 pm 14:53 Cloudy 63 17.2 45 7.2 52 52 NNW 21 33 30.01 1016 10 16 0.00 0.00
3:53 pm 15:53 Cloudy 64 17.8 46 7.8 52 52 NNW 15 24 30.00 1016 10 16 0.00 0.00
4:53 pm 16:53 Cloudy 62 16.7 45 7.2 54 54 NNW 18 30 30.00 1016 10 16 0.00 0.00
5:53 pm 17:53 Cloudy 63 17.2 47 8.3 56 56 NNW 17 28 30.00 1016 10 16 0.00 0.00
6:53 pm 18:53 Cloudy 62 16.7 47 8.3 58 58 N 14 22 30.00 1016 10 16 0.00 0.00
7:53 pm 19:53 Partly Cloudy 60 15.6 46 7.8 60 60 NNW 14 22 30.01 1016 10 16 0.00 0.00
8:53 pm 20:53 Clear 57 13.9 46 7.8 67 67 NNW 9 15 30.02 1017 10 16 0.00 0.00
9:53 pm 21:53 Clear 55 12.8 46 7.8 72 72 NNW 9 15 30.05 1018 10 16 0.00 0.00
10:53 pm 22:53 Clear 53 11.7 46 7.8 77 77 NNW 9 15 30.05 1018 10 16 0.00 0.00
11:53 pm 23:53 Cloudy 54 12.2 46 7.8 75 75 N 12 19 30.04 1017 10 16 0.00 0.00

Powered by AerisWeather